Regional Weather Roundup
Issued by NWS Cleveland, OH

Home | Current Version | Previous Version | Graphics & Text | Print | Product List | Glossary On
Versions: 1 2 3 4 5 6 7 8 9 10 11 12 13 14 15 16 17 18 19 20 21 22 23 24 25 26 27 28 29 30 31 32 33 34 35 36 37 38 39 40 41 42 43 44 45 46 47 48 49 50
000
ASUS41 KCLE 051100
RWRCLE
OHIO REGIONAL WEATHER ROUNDUP
NATIONAL WEATHER SERVICE WILMINGTON, OH
700 AM EDT SAT SEP 05 2015

NOTE: "FAIR" INDICATES FEW OR NO CLOUDS BELOW 12,000 FEET WITH NO
SIGNIFICANT WEATHER AND/OR OBSTRUCTIONS TO VISIBILITY.

OHZ001>008-015>018-024>027-034-035-043-044-051200-
   NORTHWEST OHIO

CITY           SKY/WX    TMP DP  RH WIND       PRES   REMARKS
DEFIANCE       PTCLDY    65  63  93 S3        30.12R
FINDLAY        CLOUDY    68  65  90 E3        30.13R
TOLEDO EXPRESS MOCLDY    67  65  93 VRB6      30.14R
TOLEDO EXEC    TSTM      70  66  87 S12       30.20R FOG
LIMA           MOCLDY    64  63  96 E5        30.14R
$$

OHZ009>014-019>023-028>033-038-089-051200-
   NORTHEAST OHIO

CITY           SKY/WX    TMP DP  RH WIND       PRES   REMARKS
CLE-HOPKINS    PTCLDY    67  65  93 SW6       30.17R
CLE-LAKEFRONT  CLEAR     71  63  75 S9        30.12R
CUY CO. ARPT   PTCLDY    70  64  83 S9        30.14
LORAIN-ELYRIA  CLEAR     64  62  93 SW5       30.16R
ASHTABULA      CLOUDY    68  65  90 SE7       30.16S
AKRON-CANTON   PTCLDY    64  60  87 CALM      30.16R
WOOSTER        MOCLDY    63  61  94 CALM      30.17R FOG
MANSFIELD      CLEAR     62  61  96 SW5       30.17S
YOUNGSTOWN     PTCLDY    64  63  96 E8        30.17R FOG
$$

OHZ042-051>053-060>062-070>072-077>081-051200-
  SOUTHWEST OHIO

CITY           SKY/WX    TMP DP  RH WIND       PRES   REMARKS
CINC-COVINGTON MOCLDY    68  65  90 E3        30.14R
CINC-LUNKEN    PTCLDY    63  63 100 CALM      30.14R
HAMILTON       PTCLDY    64  63  96 CALM      30.15R FOG
DAYTON         NOT AVBL
WRIGHT-PAT AFB NOT AVBL
DAYTON GENERAL PTCLDY    64  61  90 CALM      30.14R
WILMINGTON     CLEAR     63  60  90 E3        30.15R
$$

OHZ036-037-039>041-045>050-054>059-063>069-073>076-082>088-051200-
  CENTRAL AND SOUTHEAST OHIO

CITY           SKY/WX    TMP DP  RH WIND       PRES   REMARKS
COLUMBUS       PTCLDY    64  62  93 NE3       30.15R
OSU AIRPORT    CLEAR     62  61  96 N3        30.16R FOG
BOLTON FIELD   NOT AVBL
RICKENBACK AFB NOT AVBL
NEWARK         PTCLDY    63  61  93 CALM      30.15R
MARION         FAIR      62  60  93 CALM      30.16S
LANCASTER      PTCLDY    63  62  97 CALM      30.16R FOG
ZANESVILLE     PTCLDY    64  62  93 CALM      30.15R
NEW PHILLY     FOG       64  64 100 E3        30.17R VSB 1/4
$$



USA.gov is the U.S. government's official web portal to all federal, state and local government web resources and services.